Retour au catalogue

OPS 3151

ActifNavigationGEO
NORAD 9803·PAYLOAD·🇺🇸 United States

Lancé Feb 6, 1977 depuis Cape Canaveral Space Force Station

Loading…

TLE

FraisSource: Space-Track

Époque: Sep 14, 2026, 13:15 UTC

1 09803U 77007A   26257.55261080 -.00000048  00000-0  00000-0 0  9993
2 09803   4.5025 283.6645 0077486  39.9448 114.5163  0.97528480 25529

Suivez OPS 3151 en temps réel avec AllMySat

Download on the App Store